Regional Weather Roundup
Issued by NWS

Home | Current Version | Previous Version | Graphics & Text | Print | Product List | Glossary On
Versions: 1 2 3 4 5 6 7 8 9 10 11 12 13 14 15 16 17 18 19 20 21 22 23 24 25 26 27 28 29 30 31 32 33 34 35 36 37 38 39 40 41 42 43 44 45 46 47 48 49 50
000
ASUS43 KBIS 291502
RWRND

NORTH DAKOTA REGIONAL WEATHER ROUNDUP
NATIONAL WEATHER SERVICE BISMARCK ND
1000 AM CDT WED JUL 29 2015

NOTE: "FAIR" INDICATES FEW OR NO CLOUDS BELOW 12,000 FEET WITH NO
SIGNIFICANT WEATHER AND/OR OBSTRUCTIONS TO VISIBILITY.


NDZ001>003-009>011-017-291600-
NORTHWEST NORTH DAKOTA

CITY           SKY/WX    TMP DP  RH WIND       PRES   REMARKS
WILLISTON      PTSUNNY   65  51  60 W18G26    30.04R
MINOT          SUNNY     70  52  52 W22       29.93R
MINOT AFB      SUNNY     70  55  60 W22G30    29.91R
$$

NDZ018>021-031>035-040>046-291600-
SOUTHWEST NORTH DAKOTA

CITY           SKY/WX    TMP DP  RH WIND       PRES   REMARKS
BISMARCK       MOSUNNY   72  49  44 W21G29    30.02R
DICKINSON      PTSUNNY   65  46  50 W15       30.09R
GARRISON         N/A     67  53  61 W15G25    29.98R
HETTINGER ARPT SUNNY     68  44  42 W16       30.15R
$$

NDZ004>008-012>016-024-026-027-054-291600-
NORTHEAST NORTH DAKOTA

CITY           SKY/WX    TMP DP  RH WIND       PRES   REMARKS
GRAND FORKS    MOSUNNY   73  54  51 W26G40    29.72R
GRND FRKS AFB  SUNNY     72  56  56 NW28G39   29.74R
DEVILS LAKE    SUNNY     70  54  56 W26G37    29.81R
$$

NDZ022-023-025-028>030-036>039-047>053-291600-
SOUTHEAST NORTH DAKOTA

CITY           SKY/WX    TMP DP  RH WIND       PRES   REMARKS
FARGO          SUNNY     73  54  51 W24G35    29.82R
JAMESTOWN      SUNNY     71  53  52 W23G32    29.90S
$$




USA.gov is the U.S. government's official web portal to all federal, state and local government web resources and services.